Location: Béaulencourt
(50.0796°N, 2.8795°E)
Time: 00:26:16
(UTC+00:00)

CZ-4C R/B - Pass Details

Date: 20 January 2026
Orbit: 483 x 1496 km, 63.4° (Epoch: 9 February)

Event Time Altitude Azimuth Distance (km) Brightness Sun altitude
Exits shadow 05:13:12 20° 334° (NNW) 2,077 3.9 -22.6°
Maximum altitude 05:16:59 37° 28° (NNE) 1,643 3.8 -22.0°
Drops below altitude 10° 05:24:10 10° 93° (E) 3,281 6.4 -20.9°
Sets 05:27:35 0° 101° (ESE) 4,383 7.5 -20.3°
